This is the latest recevied weather packets stored in our database for station/object DG1ROH. If no packets are shown the sender has not sent any weather packets the latest 10 day(s).
| Time | Temp. | Humidity | Pressure | Rain* | Wind** | Luminosity | Snow |
|---|---|---|---|---|---|---|---|
| 1778336825 | 16.11° C | 62% | 1019.2 hPa | 0 mm | - | 260 W/m² | - |
| 1778336706 | 16.11° C | 60% | 1019.3 hPa | 0 mm | - | 218 W/m² | - |
| 1778336585 | 16.11° C | 58% | 1019.3 hPa | 0 mm | - | 218 W/m² | - |
| 1778336464 | 16.11° C | 59% | 1019.2 hPa | 0 mm | - | 223 W/m² | - |
| 1778336345 | 16.11° C | 59% | 1019.2 hPa | 0 mm | - | 227 W/m² | - |
| 1778336225 | 16.11° C | 61% | 1019.3 hPa | 0 mm | - | 229 W/m² | - |
| 1778336108 | 15.56° C | 59% | 1019.3 hPa | 0 mm | - | 221 W/m² | - |
| 1778335985 | 15.56° C | 60% | 1019.3 hPa | 0 mm | - | 202 W/m² | - |
| 1778335865 | 15.56° C | 60% | 1019.3 hPa | 0 mm | - | 195 W/m² | - |
| 1778335745 | 15.56° C | 60% | 1019.4 hPa | 0 mm | - | 190 W/m² | - |
| 1778335625 | 16.11° C | 61% | 1019.4 hPa | 0 mm | - | 183 W/m² | - |
| 1778335505 | 16.11° C | 61% | 1019.4 hPa | 0 mm | - | 179 W/m² | - |
| 1778335385 | 16.11° C | 62% | 1019.4 hPa | 0 mm | - | 179 W/m² | - |
| 1778335265 | 16.11° C | 60% | 1019.4 hPa | 0 mm | - | 188 W/m² | - |
| 1778335145 | 16.11° C | 62% | 1019.5 hPa | 0 mm | - | 188 W/m² | - |
| 1778335025 | 16.11° C | 60% | 1019.5 hPa | 0 mm | - | 186 W/m² | - |
| 1778334905 | 16.11° C | 60% | 1019.5 hPa | 0 mm | - | 190 W/m² | - |
| 1778334784 | 16.11° C | 65% | 1019.4 hPa | 0 mm | - | 190 W/m² | - |
| 1778334664 | 16.11° C | 62% | 1019.5 hPa | 0 mm | - | 183 W/m² | - |
| 1778334544 | 16.11° C | 62% | 1019.5 hPa | 0 mm | - | 163 W/m² | - |
| 1778334425 | 15.56° C | 59% | 1019.5 hPa | 0 mm | - | 155 W/m² | - |
| 1778334305 | 16.11° C | 59% | 1019.5 hPa | 0 mm | - | 149 W/m² | - |
| 1778334184 | 16.11° C | 56% | 1019.4 hPa | 0 mm | - | 165 W/m² | - |
| 1778334065 | 16.11° C | 57% | 1019.5 hPa | 0 mm | - | 174 W/m² | - |
| 1778333945 | 16.11° C | 59% | 1019.4 hPa | 0 mm | - | 193 W/m² | - |
* Rain latest hour (hover to see other rain measurements)
** Current wind speed in m/s (hover to see current wind gust speed)